Year,Month,Day,Hour,Minute,Value (Times are PST for temperature in C)
2017,05,25,00,00,9.30
2017,05,25,00,01,9.30
2017,05,25,00,02,9.30
2017,05,25,00,03,9.30
2017,05,25,00,04,9.30
2017,05,25,00,05,9.30
2017,05,25,00,06,9.30
2017,05,25,00,07,9.30
2017,05,25,00,08,9.30
2017,05,25,00,09,9.30
2017,05,25,00,10,9.30
2017,05,25,00,11,9.30
2017,05,25,00,12,9.20
2017,05,25,00,13,9.20
2017,05,25,00,14,9.20
2017,05,25,00,15,9.20
2017,05,25,00,16,9.20
2017,05,25,00,17,9.20
2017,05,25,00,18,9.20
2017,05,25,00,19,9.20
2017,05,25,00,20,9.20
2017,05,25,00,21,9.20
2017,05,25,00,22,9.20
2017,05,25,00,23,9.20
2017,05,25,00,24,9.10
2017,05,25,00,25,9.10
2017,05,25,00,26,9.10
2017,05,25,00,27,9.10
2017,05,25,00,28,9.10
2017,05,25,00,29,9.10
2017,05,25,00,30,9.10
2017,05,25,00,31,9.10
2017,05,25,00,32,9.10
2017,05,25,00,33,9.10
2017,05,25,00,34,9.10
2017,05,25,00,35,9.10
2017,05,25,00,36,9.00
2017,05,25,00,37,9.10
2017,05,25,00,38,9.10
2017,05,25,00,39,9.00
2017,05,25,00,40,9.00
2017,05,25,00,41,9.00
2017,05,25,00,42,9.00
2017,05,25,00,43,9.00
2017,05,25,00,44,9.00
2017,05,25,00,45,9.10
2017,05,25,00,46,9.00
2017,05,25,00,47,9.00
2017,05,25,00,48,9.00
2017,05,25,00,49,9.00
2017,05,25,00,50,9.00
2017,05,25,00,51,9.00
2017,05,25,00,52,9.00
2017,05,25,00,53,9.00
2017,05,25,00,54,9.00
2017,05,25,00,55,8.90
2017,05,25,00,56,8.90
2017,05,25,00,57,8.90
2017,05,25,00,58,8.90
2017,05,25,00,59,8.90
2017,05,25,01,00,8.90
2017,05,25,01,01,8.90
2017,05,25,01,02,8.90
2017,05,25,01,03,8.90
2017,05,25,01,04,8.90
2017,05,25,01,05,8.90
2017,05,25,01,06,8.90
2017,05,25,01,07,8.90
2017,05,25,01,08,8.90
2017,05,25,01,09,8.90
2017,05,25,01,10,8.90
2017,05,25,01,11,8.80
2017,05,25,01,12,8.80
2017,05,25,01,13,8.80
2017,05,25,01,14,8.80
2017,05,25,01,15,8.80
2017,05,25,01,16,8.80
2017,05,25,01,17,8.80
2017,05,25,01,18,8.80
2017,05,25,01,19,8.80
2017,05,25,01,20,8.80
2017,05,25,01,21,8.80
2017,05,25,01,22,8.80
2017,05,25,01,23,8.70
2017,05,25,01,24,8.70
2017,05,25,01,25,8.70
2017,05,25,01,26,8.70
2017,05,25,01,27,8.70
2017,05,25,01,28,8.70
2017,05,25,01,29,8.70
2017,05,25,01,30,8.70
2017,05,25,01,31,8.70
2017,05,25,01,32,8.70
2017,05,25,01,33,8.70
2017,05,25,01,34,8.70
2017,05,25,01,35,8.60
2017,05,25,01,36,8.60
2017,05,25,01,37,8.60
2017,05,25,01,38,8.60
2017,05,25,01,39,8.60
2017,05,25,01,40,8.60
2017,05,25,01,41,8.60
2017,05,25,01,42,8.60
2017,05,25,01,43,8.50
2017,05,25,01,44,8.50
2017,05,25,01,45,8.50
2017,05,25,01,46,8.50
2017,05,25,01,47,8.50
2017,05,25,01,48,8.50
2017,05,25,01,49,8.40
2017,05,25,01,50,8.40
2017,05,25,01,51,8.40
2017,05,25,01,52,8.40
2017,05,25,01,53,8.40
2017,05,25,01,54,8.40
2017,05,25,01,55,8.30
2017,05,25,01,56,8.30
2017,05,25,01,57,8.30
2017,05,25,01,58,8.30
2017,05,25,01,59,8.30
2017,05,25,02,00,8.30
2017,05,25,02,01,8.20
2017,05,25,02,02,8.20
2017,05,25,02,03,8.20
2017,05,25,02,04,8.20
2017,05,25,02,05,8.20
2017,05,25,02,06,8.20
2017,05,25,02,07,8.10
2017,05,25,02,08,8.10
2017,05,25,02,09,8.10
2017,05,25,02,10,8.10
2017,05,25,02,11,8.10
2017,05,25,02,12,8.10
2017,05,25,02,13,8.10
2017,05,25,02,14,8.00
2017,05,25,02,15,8.00
2017,05,25,02,16,8.00
2017,05,25,02,17,8.00
2017,05,25,02,18,8.00
2017,05,25,02,19,8.00
2017,05,25,02,20,7.90
2017,05,25,02,21,7.90
2017,05,25,02,22,7.90
2017,05,25,02,23,7.90
2017,05,25,02,24,7.90
2017,05,25,02,25,7.90
2017,05,25,02,26,7.90
2017,05,25,02,27,7.90
2017,05,25,02,28,7.90
2017,05,25,02,29,7.90
2017,05,25,02,30,7.90
2017,05,25,02,31,7.80
2017,05,25,02,32,7.80
2017,05,25,02,33,7.80
2017,05,25,02,34,7.80
2017,05,25,02,35,7.80
2017,05,25,02,36,7.80
2017,05,25,02,37,7.80
2017,05,25,02,38,7.80
2017,05,25,02,39,7.80
2017,05,25,02,40,7.80
2017,05,25,02,41,7.80
2017,05,25,02,42,7.80
2017,05,25,02,43,7.80
2017,05,25,02,44,7.80
2017,05,25,02,45,7.80
2017,05,25,02,46,7.80
2017,05,25,02,47,7.80
2017,05,25,02,48,7.80
2017,05,25,02,49,7.80
2017,05,25,02,50,7.80
2017,05,25,02,51,7.80
2017,05,25,02,52,7.80
2017,05,25,02,53,7.80
2017,05,25,02,54,7.80
2017,05,25,02,55,7.70
2017,05,25,02,56,7.80
2017,05,25,02,57,7.80
2017,05,25,02,58,7.80
2017,05,25,02,59,7.80
2017,05,25,03,00,7.80
2017,05,25,03,01,7.80
2017,05,25,03,02,7.80
2017,05,25,03,03,7.80
2017,05,25,03,04,7.80
2017,05,25,03,05,7.80
2017,05,25,03,06,7.80
2017,05,25,03,07,7.80
2017,05,25,03,08,7.80
2017,05,25,03,09,7.90
2017,05,25,03,10,7.90
2017,05,25,03,11,7.90
2017,05,25,03,12,7.90
2017,05,25,03,13,7.90
2017,05,25,03,14,7.90
2017,05,25,03,15,7.90
2017,05,25,03,16,7.90
2017,05,25,03,17,7.90
2017,05,25,03,18,7.90
2017,05,25,03,19,7.90
2017,05,25,03,20,7.90
2017,05,25,03,21,7.90
2017,05,25,03,22,7.90
2017,05,25,03,23,7.90
2017,05,25,03,24,7.90
2017,05,25,03,25,7.90
2017,05,25,03,26,7.90
2017,05,25,03,27,7.90
2017,05,25,03,28,7.90
2017,05,25,03,29,7.90
2017,05,25,03,30,7.90
2017,05,25,03,31,7.90
2017,05,25,03,32,7.90
2017,05,25,03,33,7.90
2017,05,25,03,34,7.90
2017,05,25,03,35,7.90
2017,05,25,03,36,7.90
2017,05,25,03,37,7.90
2017,05,25,03,38,7.90
2017,05,25,03,39,7.90
2017,05,25,03,40,7.90
2017,05,25,03,41,7.90
2017,05,25,03,42,7.90
2017,05,25,03,43,7.90
2017,05,25,03,44,7.90
2017,05,25,03,45,7.90
2017,05,25,03,46,7.90
2017,05,25,03,47,7.90
2017,05,25,03,48,7.90
2017,05,25,03,49,7.90
2017,05,25,03,50,7.90
2017,05,25,03,51,7.90
2017,05,25,03,52,7.90
2017,05,25,03,53,7.90
2017,05,25,03,54,7.80
2017,05,25,03,55,7.80
2017,05,25,03,56,7.80
2017,05,25,03,57,7.80
2017,05,25,03,58,7.80
2017,05,25,03,59,7.80
2017,05,25,04,00,7.80
2017,05,25,04,01,7.80
2017,05,25,04,02,7.80
2017,05,25,04,03,7.80
2017,05,25,04,04,7.80
2017,05,25,04,05,7.80
2017,05,25,04,06,7.80
2017,05,25,04,07,7.80
2017,05,25,04,08,7.80
2017,05,25,04,09,7.80
2017,05,25,04,10,7.80
2017,05,25,04,11,7.80
2017,05,25,04,12,7.80
2017,05,25,04,13,7.80
2017,05,25,04,14,7.80
2017,05,25,04,15,7.80
2017,05,25,04,16,7.80
2017,05,25,04,17,7.80
2017,05,25,04,18,7.80
2017,05,25,04,19,7.80
2017,05,25,04,20,7.80
2017,05,25,04,21,7.80
2017,05,25,04,22,7.80
2017,05,25,04,23,7.70
2017,05,25,04,24,7.80
2017,05,25,04,25,7.80
2017,05,25,04,26,7.70
2017,05,25,04,27,7.70
2017,05,25,04,28,7.70
2017,05,25,04,29,7.70
2017,05,25,04,30,7.70
2017,05,25,04,31,7.70
2017,05,25,04,32,7.70
2017,05,25,04,33,7.70
2017,05,25,04,34,7.70
2017,05,25,04,35,7.70
2017,05,25,04,36,7.70
2017,05,25,04,37,7.70
2017,05,25,04,38,7.70
2017,05,25,04,39,7.70
2017,05,25,04,40,7.70
2017,05,25,04,41,7.70
2017,05,25,04,42,7.70
2017,05,25,04,43,7.70
2017,05,25,04,44,7.70
2017,05,25,04,45,7.70
2017,05,25,04,46,7.70
2017,05,25,04,47,7.70
2017,05,25,04,48,7.70
2017,05,25,04,49,7.60
2017,05,25,04,50,7.60
2017,05,25,04,51,7.60
2017,05,25,04,52,7.60
2017,05,25,04,53,7.60
2017,05,25,04,54,7.60
2017,05,25,04,55,7.60
2017,05,25,04,56,7.60
2017,05,25,04,57,7.60
2017,05,25,04,58,7.60
2017,05,25,04,59,7.60
2017,05,25,05,00,7.60
2017,05,25,05,01,7.60
2017,05,25,05,02,7.50
2017,05,25,05,03,7.50
2017,05,25,05,04,7.50
2017,05,25,05,05,7.40
2017,05,25,05,06,7.40
2017,05,25,05,07,7.40
2017,05,25,05,08,7.40
2017,05,25,05,09,7.40
2017,05,25,05,10,7.40
2017,05,25,05,11,7.40
2017,05,25,05,12,7.40
2017,05,25,05,13,7.40
2017,05,25,05,14,7.40
2017,05,25,05,15,7.30
2017,05,25,05,16,7.40
2017,05,25,05,17,7.30
2017,05,25,05,18,7.30
2017,05,25,05,19,7.30
2017,05,25,05,20,7.30
2017,05,25,05,21,7.40
2017,05,25,05,22,7.40
2017,05,25,05,23,7.40
2017,05,25,05,24,7.40
2017,05,25,05,25,7.40
2017,05,25,05,26,7.40
2017,05,25,05,27,7.40
2017,05,25,05,28,7.40
2017,05,25,05,29,7.40
2017,05,25,05,30,7.40
2017,05,25,05,31,7.40
2017,05,25,05,32,7.40
2017,05,25,05,33,7.30
2017,05,25,05,34,7.30
2017,05,25,05,35,7.30
2017,05,25,05,36,7.30
2017,05,25,05,37,7.30
2017,05,25,05,38,7.30
2017,05,25,05,39,7.30
2017,05,25,05,40,7.30
2017,05,25,05,41,7.30
2017,05,25,05,42,7.30
2017,05,25,05,43,7.30
2017,05,25,05,44,7.30
2017,05,25,05,45,7.30
2017,05,25,05,46,7.30
2017,05,25,05,47,7.30
2017,05,25,05,48,7.30
2017,05,25,05,49,7.30
2017,05,25,05,50,7.30
2017,05,25,05,51,7.30
2017,05,25,05,52,7.30
2017,05,25,05,53,7.30
2017,05,25,05,54,7.30
2017,05,25,05,55,7.30
2017,05,25,05,56,7.30
2017,05,25,05,57,7.30
2017,05,25,05,58,7.30
2017,05,25,05,59,7.30
2017,05,25,06,00,7.30
2017,05,25,06,01,7.30
2017,05,25,06,02,7.30
2017,05,25,06,03,7.30
2017,05,25,06,04,7.30
2017,05,25,06,05,7.30
2017,05,25,06,06,7.30
2017,05,25,06,07,7.30
2017,05,25,06,08,7.30
2017,05,25,06,09,7.20
2017,05,25,06,10,7.20
2017,05,25,06,11,7.20
2017,05,25,06,12,7.20
2017,05,25,06,13,7.20
2017,05,25,06,14,7.20
2017,05,25,06,15,7.20
2017,05,25,06,16,7.20
2017,05,25,06,17,7.20
2017,05,25,06,18,7.20
2017,05,25,06,19,7.20
2017,05,25,06,20,7.20
2017,05,25,06,21,7.20
2017,05,25,06,22,7.20
2017,05,25,06,23,7.20
2017,05,25,06,24,7.20
2017,05,25,06,25,7.20
2017,05,25,06,26,7.30
2017,05,25,06,27,7.30
2017,05,25,06,28,7.30
2017,05,25,06,29,7.30
2017,05,25,06,30,7.40
2017,05,25,06,31,7.40
2017,05,25,06,32,7.40
2017,05,25,06,33,7.50
2017,05,25,06,34,7.50
2017,05,25,06,35,7.60
2017,05,25,06,36,7.60
2017,05,25,06,37,7.60
2017,05,25,06,38,7.70
2017,05,25,06,39,7.70
2017,05,25,06,40,7.70
2017,05,25,06,41,7.70
2017,05,25,06,42,7.70
2017,05,25,06,43,7.70
2017,05,25,06,44,7.80
2017,05,25,06,45,7.80
2017,05,25,06,46,7.80
2017,05,25,06,47,7.80
2017,05,25,06,48,7.80
2017,05,25,06,49,7.80
2017,05,25,06,50,7.80
2017,05,25,06,51,7.90
2017,05,25,06,52,7.90
2017,05,25,06,53,7.90
2017,05,25,06,54,7.90
2017,05,25,06,55,8.00
2017,05,25,06,56,8.00
2017,05,25,06,57,8.00
2017,05,25,06,58,8.10
2017,05,25,06,59,8.10
2017,05,25,07,00,8.20
2017,05,25,07,01,8.20
2017,05,25,07,02,8.20
2017,05,25,07,03,8.30
2017,05,25,07,04,8.30
2017,05,25,07,05,8.40
2017,05,25,07,06,8.40
2017,05,25,07,07,8.50
2017,05,25,07,08,8.50
2017,05,25,07,09,8.60
2017,05,25,07,10,8.60
2017,05,25,07,11,8.60
2017,05,25,07,12,8.70
2017,05,25,07,13,8.70
2017,05,25,07,14,8.70
2017,05,25,07,15,8.70
2017,05,25,07,16,8.70
2017,05,25,07,17,8.80
2017,05,25,07,18,8.80
2017,05,25,07,19,8.80
2017,05,25,07,20,8.80
2017,05,25,07,21,8.90
2017,05,25,07,22,8.90
2017,05,25,07,23,8.90
2017,05,25,07,24,9.00
2017,05,25,07,25,9.00
2017,05,25,07,26,9.10
2017,05,25,07,27,9.10
2017,05,25,07,28,9.10
2017,05,25,07,29,9.10
2017,05,25,07,30,9.20
2017,05,25,07,31,9.20
2017,05,25,07,32,9.30
2017,05,25,07,33,9.30
2017,05,25,07,34,9.30
2017,05,25,07,35,9.40
2017,05,25,07,36,9.40
2017,05,25,07,37,9.40
2017,05,25,07,38,9.50
2017,05,25,07,39,9.50
2017,05,25,07,40,9.60
2017,05,25,07,41,9.60
2017,05,25,07,42,9.70
2017,05,25,07,43,9.70
2017,05,25,07,44,9.80
2017,05,25,07,45,9.80
2017,05,25,07,46,9.90
2017,05,25,07,47,9.90
2017,05,25,07,48,10.00
2017,05,25,07,49,10.00
2017,05,25,07,50,10.10
2017,05,25,07,51,10.20
2017,05,25,07,52,10.20
2017,05,25,07,53,10.20
2017,05,25,07,54,10.30
2017,05,25,07,55,10.40
2017,05,25,07,56,10.50
2017,05,25,07,57,10.60
2017,05,25,07,58,10.60
2017,05,25,07,59,10.70
2017,05,25,08,00,10.80
2017,05,25,08,01,10.80
2017,05,25,08,02,10.90
2017,05,25,08,03,10.90
2017,05,25,08,04,11.00
2017,05,25,08,05,11.10
2017,05,25,08,06,11.10
2017,05,25,08,07,11.20
2017,05,25,08,08,11.20
2017,05,25,08,09,11.30
2017,05,25,08,10,11.30
2017,05,25,08,11,11.30
2017,05,25,08,12,11.30
2017,05,25,08,13,11.40
2017,05,25,08,14,11.40
2017,05,25,08,15,11.50
2017,05,25,08,16,11.50
2017,05,25,08,17,11.50
2017,05,25,08,18,11.60
2017,05,25,08,19,11.60
2017,05,25,08,20,11.70
2017,05,25,08,21,11.70
2017,05,25,08,22,11.70
2017,05,25,08,23,11.80
2017,05,25,08,24,11.80
2017,05,25,08,25,11.90
2017,05,25,08,26,11.90
2017,05,25,08,27,12.00
2017,05,25,08,28,12.00
2017,05,25,08,29,12.10
2017,05,25,08,30,12.10
2017,05,25,08,31,12.10
2017,05,25,08,32,12.20
2017,05,25,08,33,12.30
2017,05,25,08,34,12.30
2017,05,25,08,35,12.30
2017,05,25,08,36,12.40
2017,05,25,08,37,12.40
2017,05,25,08,38,12.50
2017,05,25,08,39,12.50
2017,05,25,08,40,12.60
2017,05,25,08,41,12.60
2017,05,25,08,42,12.60
2017,05,25,08,43,12.70
2017,05,25,08,44,12.70
2017,05,25,08,45,12.70
2017,05,25,08,46,12.80
2017,05,25,08,47,12.80
2017,05,25,08,48,12.80
2017,05,25,08,49,12.90
2017,05,25,08,50,12.90
2017,05,25,08,51,13.00
2017,05,25,08,52,13.10
2017,05,25,08,53,13.20
2017,05,25,08,54,13.20
2017,05,25,08,55,13.30
2017,05,25,08,56,13.40
2017,05,25,08,57,13.50
2017,05,25,08,58,13.60
2017,05,25,08,59,13.70
2017,05,25,09,00,13.70
2017,05,25,09,01,13.80
2017,05,25,09,02,13.80
2017,05,25,09,03,13.90
2017,05,25,09,04,13.90
2017,05,25,09,05,14.00
2017,05,25,09,06,14.10
2017,05,25,09,07,14.10
2017,05,25,09,08,14.20
2017,05,25,09,09,14.20
2017,05,25,09,10,14.30
2017,05,25,09,11,14.30
2017,05,25,09,12,14.30
2017,05,25,09,13,14.40
2017,05,25,09,14,14.40
2017,05,25,09,15,14.50
2017,05,25,09,16,14.50
2017,05,25,09,17,14.50
2017,05,25,09,18,14.50
2017,05,25,09,19,14.50
2017,05,25,09,20,14.60
2017,05,25,09,21,14.60
2017,05,25,09,22,14.60
2017,05,25,09,23,14.60
2017,05,25,09,24,14.70
2017,05,25,09,25,14.80
2017,05,25,09,26,14.90
2017,05,25,09,27,14.90
2017,05,25,09,28,14.90
2017,05,25,09,29,15.00
2017,05,25,09,30,15.00
2017,05,25,09,31,15.10
2017,05,25,09,32,15.10
2017,05,25,09,33,15.20
2017,05,25,09,34,15.30
2017,05,25,09,35,15.30
2017,05,25,09,36,15.30
2017,05,25,09,37,15.30
2017,05,25,09,38,15.30
2017,05,25,09,39,15.30
2017,05,25,09,40,15.40
2017,05,25,09,41,15.40
2017,05,25,09,42,15.40
2017,05,25,09,43,15.50
2017,05,25,09,44,15.40
2017,05,25,09,45,15.40
2017,05,25,09,46,15.40
2017,05,25,09,47,15.40
2017,05,25,09,48,15.40
2017,05,25,09,49,15.40
2017,05,25,09,50,15.30
2017,05,25,09,51,15.30
2017,05,25,09,52,15.40
2017,05,25,09,53,15.50
2017,05,25,09,54,15.60
2017,05,25,09,55,15.70
2017,05,25,09,56,15.80
2017,05,25,09,57,15.90
2017,05,25,09,58,15.90
2017,05,25,09,59,16.00
2017,05,25,10,00,16.10
2017,05,25,10,01,16.10
2017,05,25,10,02,16.20
2017,05,25,10,03,16.20
2017,05,25,10,04,16.20
2017,05,25,10,05,16.20
2017,05,25,10,06,16.10
2017,05,25,10,07,16.10
2017,05,25,10,08,16.10
2017,05,25,10,09,16.10
2017,05,25,10,10,16.10
2017,05,25,10,11,16.10
2017,05,25,10,12,16.10
2017,05,25,10,13,16.20
2017,05,25,10,14,16.20
2017,05,25,10,15,16.20
2017,05,25,10,16,16.20
2017,05,25,10,17,16.20
2017,05,25,10,18,16.10
2017,05,25,10,19,16.10
2017,05,25,10,20,16.10
2017,05,25,10,21,16.20
2017,05,25,10,22,16.20
2017,05,25,10,23,16.20
2017,05,25,10,24,16.20
2017,05,25,10,25,16.20
2017,05,25,10,26,16.20
2017,05,25,10,27,16.20
2017,05,25,10,28,16.20
2017,05,25,10,29,16.20
2017,05,25,10,30,16.20
2017,05,25,10,31,16.20
2017,05,25,10,32,16.10
2017,05,25,10,33,16.00
2017,05,25,10,34,15.80
2017,05,25,10,35,15.70
2017,05,25,10,36,15.60
2017,05,25,10,37,15.50
2017,05,25,10,38,15.50
2017,05,25,10,39,15.50
2017,05,25,10,40,15.40
2017,05,25,10,41,15.40
2017,05,25,10,42,15.50
2017,05,25,10,43,15.50
2017,05,25,10,44,15.60
2017,05,25,10,45,15.60
2017,05,25,10,46,15.50
2017,05,25,10,47,15.50
2017,05,25,10,48,15.50
2017,05,25,10,49,15.50
2017,05,25,10,50,15.50
2017,05,25,10,51,15.60
2017,05,25,10,52,15.70
2017,05,25,10,53,15.70
2017,05,25,10,54,15.70
2017,05,25,10,55,15.70
2017,05,25,10,56,15.60
2017,05,25,10,57,15.60
2017,05,25,10,58,15.60
2017,05,25,10,59,15.60
2017,05,25,11,00,15.60
2017,05,25,11,01,15.60
2017,05,25,11,02,15.70
2017,05,25,11,03,15.70
2017,05,25,11,04,15.70
2017,05,25,11,05,15.80
2017,05,25,11,06,15.80
2017,05,25,11,07,15.80
2017,05,25,11,08,15.80
2017,05,25,11,09,15.80
2017,05,25,11,10,15.80
2017,05,25,11,11,15.80
2017,05,25,11,12,15.80
2017,05,25,11,13,15.80
2017,05,25,11,14,15.80
2017,05,25,11,15,15.80
2017,05,25,11,16,15.80
2017,05,25,11,17,15.80
2017,05,25,11,18,15.80
2017,05,25,11,19,15.80
2017,05,25,11,20,15.90
2017,05,25,11,21,15.90
2017,05,25,11,22,15.90
2017,05,25,11,23,16.00
2017,05,25,11,24,16.00
2017,05,25,11,25,16.10
2017,05,25,11,26,16.10
2017,05,25,11,27,16.20
2017,05,25,11,28,16.30
2017,05,25,11,29,16.40
2017,05,25,11,30,16.50
2017,05,25,11,31,16.60
2017,05,25,11,32,16.70
2017,05,25,11,33,16.80
2017,05,25,11,34,16.90
2017,05,25,11,35,17.00
2017,05,25,11,36,17.10
2017,05,25,11,37,17.30
2017,05,25,11,38,17.30
2017,05,25,11,39,17.40
2017,05,25,11,40,17.40
2017,05,25,11,41,17.50
2017,05,25,11,42,17.40
2017,05,25,11,43,17.50
2017,05,25,11,44,17.60
2017,05,25,11,45,17.60
2017,05,25,11,46,17.60
2017,05,25,11,47,17.70
2017,05,25,11,48,17.70
2017,05,25,11,49,17.70
2017,05,25,11,50,17.70
2017,05,25,11,51,17.70
2017,05,25,11,52,17.60
2017,05,25,11,53,17.60
2017,05,25,11,54,17.50
2017,05,25,11,55,17.50
2017,05,25,11,56,17.50
2017,05,25,11,57,17.50
2017,05,25,11,58,17.50
2017,05,25,11,59,17.50
2017,05,25,12,00,17.60
2017,05,25,12,01,17.60
2017,05,25,12,02,17.60
2017,05,25,12,03,17.60
2017,05,25,12,04,17.60
2017,05,25,12,05,17.50
2017,05,25,12,06,17.50
2017,05,25,12,07,17.30
2017,05,25,12,08,17.30
2017,05,25,12,09,17.30
2017,05,25,12,10,17.20
2017,05,25,12,11,17.20
2017,05,25,12,12,17.20
2017,05,25,12,13,17.20
2017,05,25,12,14,17.10
2017,05,25,12,15,17.20
2017,05,25,12,16,17.30
2017,05,25,12,17,17.40
2017,05,25,12,18,17.50
2017,05,25,12,19,17.50
2017,05,25,12,20,17.50
2017,05,25,12,21,17.40
2017,05,25,12,22,17.40
2017,05,25,12,23,17.30
2017,05,25,12,24,17.30
2017,05,25,12,25,17.20
2017,05,25,12,26,17.20
2017,05,25,12,27,17.20
2017,05,25,12,28,17.10
2017,05,25,12,29,17.10
2017,05,25,12,30,17.20
2017,05,25,12,31,17.30
2017,05,25,12,32,17.50
2017,05,25,12,33,17.60
2017,05,25,12,34,17.80
2017,05,25,12,35,18.00
2017,05,25,12,36,18.10
2017,05,25,12,37,18.20
2017,05,25,12,38,18.20
2017,05,25,12,39,18.30
2017,05,25,12,40,18.30
2017,05,25,12,41,18.20
2017,05,25,12,42,18.10
2017,05,25,12,43,18.00
2017,05,25,12,44,18.00
2017,05,25,12,45,17.90
2017,05,25,12,46,17.80
2017,05,25,12,47,17.80
2017,05,25,12,48,17.80
2017,05,25,12,49,17.70
2017,05,25,12,50,17.70
2017,05,25,12,51,17.60
2017,05,25,12,52,17.60
2017,05,25,12,53,17.60
2017,05,25,12,54,17.60
2017,05,25,12,55,17.70
2017,05,25,12,56,17.80
2017,05,25,12,57,17.80
2017,05,25,12,58,17.90
2017,05,25,12,59,17.90
2017,05,25,13,00,17.80
2017,05,25,13,01,17.80
2017,05,25,13,02,17.80
2017,05,25,13,03,17.80
2017,05,25,13,04,17.80
2017,05,25,13,05,17.80
2017,05,25,13,06,17.80
2017,05,25,13,07,17.70
2017,05,25,13,08,17.70
2017,05,25,13,09,17.70
2017,05,25,13,10,17.70
2017,05,25,13,11,17.70
2017,05,25,13,12,17.70
2017,05,25,13,13,17.60
2017,05,25,13,14,17.60
2017,05,25,13,15,17.60
2017,05,25,13,16,17.60
2017,05,25,13,17,17.70
2017,05,25,13,18,17.80
2017,05,25,13,19,17.90
2017,05,25,13,20,18.00
2017,05,25,13,21,18.00
2017,05,25,13,22,18.10
2017,05,25,13,23,18.10
2017,05,25,13,24,18.10
2017,05,25,13,25,18.00
2017,05,25,13,26,17.90
2017,05,25,13,27,17.80
2017,05,25,13,28,17.70
2017,05,25,13,29,17.60
2017,05,25,13,30,17.60
2017,05,25,13,31,17.60
2017,05,25,13,32,17.50
2017,05,25,13,33,17.40
2017,05,25,13,34,17.40
2017,05,25,13,35,17.30
2017,05,25,13,36,17.30
2017,05,25,13,37,17.20
2017,05,25,13,38,17.20
2017,05,25,13,39,17.20
2017,05,25,13,40,17.20
2017,05,25,13,41,17.30
2017,05,25,13,42,17.30
2017,05,25,13,43,17.30
2017,05,25,13,44,17.30
2017,05,25,13,45,17.40
2017,05,25,13,46,17.40
2017,05,25,13,47,17.40
2017,05,25,13,48,17.30
2017,05,25,13,49,17.30
2017,05,25,13,50,17.20
2017,05,25,13,51,17.20
2017,05,25,13,52,17.20
2017,05,25,13,53,17.20
2017,05,25,13,54,17.20
2017,05,25,13,55,17.20
2017,05,25,13,56,17.20
2017,05,25,13,57,17.20
2017,05,25,13,58,17.20
2017,05,25,13,59,17.20
2017,05,25,14,00,17.20
2017,05,25,14,01,17.20
2017,05,25,14,02,17.20
2017,05,25,14,03,17.30
2017,05,25,14,04,17.40
2017,05,25,14,05,17.40
2017,05,25,14,06,17.50
2017,05,25,14,07,17.50
2017,05,25,14,08,17.40
2017,05,25,14,09,17.30
2017,05,25,14,10,17.30
2017,05,25,14,11,17.30
2017,05,25,14,12,17.40
2017,05,25,14,13,17.50
2017,05,25,14,14,17.60
2017,05,25,14,15,17.60
2017,05,25,14,16,17.70
2017,05,25,14,17,17.70
2017,05,25,14,18,17.70
2017,05,25,14,19,17.60
2017,05,25,14,20,17.50
2017,05,25,14,21,17.50
2017,05,25,14,22,17.40
2017,05,25,14,23,17.40
2017,05,25,14,24,17.40
2017,05,25,14,25,17.50
2017,05,25,14,26,17.50
2017,05,25,14,27,17.60
2017,05,25,14,28,17.60
2017,05,25,14,29,17.70
2017,05,25,14,30,17.80
2017,05,25,14,31,17.80
2017,05,25,14,32,17.90
2017,05,25,14,33,18.00
2017,05,25,14,34,18.00
2017,05,25,14,35,18.10
2017,05,25,14,36,18.10
2017,05,25,14,37,18.10
2017,05,25,14,38,18.10
2017,05,25,14,39,18.10
2017,05,25,14,40,18.10
2017,05,25,14,41,18.10
2017,05,25,14,42,18.10
2017,05,25,14,43,18.10
2017,05,25,14,44,18.10
2017,05,25,14,45,18.20
2017,05,25,14,46,18.30
2017,05,25,14,47,18.50
2017,05,25,14,48,18.60
2017,05,25,14,49,18.60
2017,05,25,14,50,18.60
2017,05,25,14,51,18.50
2017,05,25,14,52,18.40
2017,05,25,14,53,18.30
2017,05,25,14,54,18.30
2017,05,25,14,55,18.20
2017,05,25,14,56,18.20
2017,05,25,14,57,18.30
2017,05,25,14,58,18.40
2017,05,25,14,59,18.50
2017,05,25,15,00,18.60
2017,05,25,15,01,18.80
2017,05,25,15,02,18.90
2017,05,25,15,03,19.00
2017,05,25,15,04,19.10
2017,05,25,15,05,19.20
2017,05,25,15,06,19.20
2017,05,25,15,07,19.20
2017,05,25,15,08,19.30
2017,05,25,15,09,19.30
2017,05,25,15,10,19.30
2017,05,25,15,11,19.30
2017,05,25,15,12,19.20
2017,05,25,15,13,19.10
2017,05,25,15,14,19.10
2017,05,25,15,15,19.00
2017,05,25,15,16,18.90
2017,05,25,15,17,18.80
2017,05,25,15,18,18.70
2017,05,25,15,19,18.50
2017,05,25,15,20,18.40
2017,05,25,15,21,18.30
2017,05,25,15,22,18.20
2017,05,25,15,23,18.10
2017,05,25,15,24,18.00
2017,05,25,15,25,17.90
2017,05,25,15,26,17.80
2017,05,25,15,27,17.70
2017,05,25,15,28,17.70
2017,05,25,15,29,17.60
2017,05,25,15,30,17.60
2017,05,25,15,31,17.60
2017,05,25,15,32,17.70
2017,05,25,15,33,17.70
2017,05,25,15,34,17.70
2017,05,25,15,35,17.80
2017,05,25,15,36,17.90
2017,05,25,15,37,18.00
2017,05,25,15,38,18.00
2017,05,25,15,39,18.10
2017,05,25,15,40,18.10
2017,05,25,15,41,18.20
2017,05,25,15,42,18.40
2017,05,25,15,43,18.50
2017,05,25,15,44,18.60
2017,05,25,15,45,18.60
2017,05,25,15,46,18.70
2017,05,25,15,47,18.70
2017,05,25,15,48,18.80
2017,05,25,15,49,18.80
2017,05,25,15,50,18.80
2017,05,25,15,51,18.80
2017,05,25,15,52,18.70
2017,05,25,15,53,18.70
2017,05,25,15,54,18.70
2017,05,25,15,55,18.60
2017,05,25,15,56,18.60
2017,05,25,15,57,18.50
2017,05,25,15,58,18.50
2017,05,25,15,59,18.40
2017,05,25,16,00,18.40
2017,05,25,16,01,18.30
2017,05,25,16,02,18.20
2017,05,25,16,03,18.20
2017,05,25,16,04,18.10
2017,05,25,16,05,18.00
2017,05,25,16,06,17.90
2017,05,25,16,07,17.90
2017,05,25,16,08,17.90
2017,05,25,16,09,17.90
2017,05,25,16,10,17.80
2017,05,25,16,11,17.80
2017,05,25,16,12,17.80
2017,05,25,16,13,17.90
2017,05,25,16,14,17.90
2017,05,25,16,15,17.90
2017,05,25,16,16,17.90
2017,05,25,16,17,17.90
2017,05,25,16,18,17.90
2017,05,25,16,19,17.90
2017,05,25,16,20,18.00
2017,05,25,16,21,18.00
2017,05,25,16,22,18.10
2017,05,25,16,23,18.10
2017,05,25,16,24,18.20
2017,05,25,16,25,18.30
2017,05,25,16,26,18.30
2017,05,25,16,27,18.40
2017,05,25,16,28,18.50
2017,05,25,16,29,18.50
2017,05,25,16,30,18.60
2017,05,25,16,31,18.70
2017,05,25,16,32,18.70
2017,05,25,16,33,18.80
2017,05,25,16,34,18.80
2017,05,25,16,35,18.90
2017,05,25,16,36,18.90
2017,05,25,16,37,18.90
2017,05,25,16,38,18.90
2017,05,25,16,39,18.90
2017,05,25,16,40,18.90
2017,05,25,16,41,18.90
2017,05,25,16,42,18.90
2017,05,25,16,43,18.90
2017,05,25,16,44,18.90
2017,05,25,16,45,18.90
2017,05,25,16,46,18.90
2017,05,25,16,47,18.90
2017,05,25,16,48,18.90
2017,05,25,16,49,18.90
2017,05,25,16,50,18.90
2017,05,25,16,51,18.90
2017,05,25,16,52,18.80
2017,05,25,16,53,18.80
2017,05,25,16,54,18.70
2017,05,25,16,55,18.70
2017,05,25,16,56,18.60
2017,05,25,16,57,18.60
2017,05,25,16,58,18.60
2017,05,25,16,59,18.50
2017,05,25,17,00,18.50
2017,05,25,17,01,18.40
2017,05,25,17,02,18.30
2017,05,25,17,03,18.30
2017,05,25,17,04,18.30
2017,05,25,17,05,18.20
2017,05,25,17,06,18.20
2017,05,25,17,07,18.20
2017,05,25,17,08,18.20
2017,05,25,17,09,18.20
2017,05,25,17,10,18.10
2017,05,25,17,11,18.10
2017,05,25,17,12,18.10
2017,05,25,17,13,18.20
2017,05,25,17,14,18.20
2017,05,25,17,15,18.20
2017,05,25,17,16,18.30
2017,05,25,17,17,18.30
2017,05,25,17,18,18.30
2017,05,25,17,19,18.40
2017,05,25,17,20,18.40
2017,05,25,17,21,18.40
2017,05,25,17,22,18.50
2017,05,25,17,23,18.60
2017,05,25,17,24,18.70
2017,05,25,17,25,18.70
2017,05,25,17,26,18.70
2017,05,25,17,27,18.80
2017,05,25,17,28,18.80
2017,05,25,17,29,18.80
2017,05,25,17,30,18.80
2017,05,25,17,31,18.70
2017,05,25,17,32,18.70
2017,05,25,17,33,18.60
2017,05,25,17,34,18.60
2017,05,25,17,35,18.50
2017,05,25,17,36,18.50
2017,05,25,17,37,18.50
2017,05,25,17,38,18.50
2017,05,25,17,39,18.50